This demonstration page uses our WeatherBlox Daily Observations layout. Learn more.

Hourly Observations for August 14, 2016

Temp ( °F °C ) Dew Point ( °F °C ) Humidity (%) Winds ( mph kmh ) Pressure ( in mb ) Visibility ( mi km ) Precip ( " mm )
12:54 am 00:54 Clear 68 20 64 17.8 87 87 Calm 30.04 1017 10 16.0934 0 0
1:54 am 01:54 Clear 68 20 64 17.8 87 87 Calm 30.03 1017 10 16.0934 0 0
2:54 am 02:54 Clear 65 18.3 63 17.2 93 93 N 3 6 30.03 1017 10 16.0934 0 0
3:54 am 03:54 Mostly Cloudy 66 18.9 64 17.8 93 93 N 3 6 30.03 1017 10 16.0934 0 0
4:54 am 04:54 Mostly Cloudy 66 18.9 63 17.2 90 90 N 3 6 30.04 1017 10 16.0934 0 0
5:54 am 05:54 Clear 64 17.8 62 16.7 93 93 N 6 9 30.05 1018 10 16.0934 0 0
6:54 am 06:54 Sunny 65 18.3 61 16.1 87 87 Calm 30.06 1018 10 16.0934 0 0
7:54 am 07:54 Sunny 69 20.6 62 16.7 78 78 Calm 30.07 1018 10 16.0934 0 0
8:54 am 08:54 Sunny 74 23.3 63 17.2 69 69 Calm 30.08 1019 10 16.0934 0 0
9:54 am 09:54 Sunny 79 26.1 64 17.8 60 60 Calm 30.09 1019 10 16.0934 0 0
10:54 am 10:54 Sunny 80 26.7 64 17.8 58 58 N 6 9 30.1 1019 10 16.0934 0 0
11:54 am 11:54 Sunny 84 28.9 61 16.1 46 46 VRB 3 6 30.09 1019 10 16.0934 0 0
12:54 pm 12:54 Sunny 85 29.4 60 15.6 43 43 Calm 30.08 1019 10 16.0934 0 0
1:54 pm 13:54 Sunny 85 29.4 54 12.2 35 35 E 3 6 30.07 1018 10 16.0934 0 0
2:54 pm 14:54 Sunny 86 30 58 14.4 39 39 NE 9 15 30.06 1018 10 16.0934 0 0
3:54 pm 15:54 Sunny 86 30 58 14.4 39 39 NE 9 15 30.04 1017 10 16.0934 0 0
4:54 pm 16:54 Sunny 86 30 54 12.2 33 33 NE 9 15 30.03 1017 10 16.0934 0 0
5:54 pm 17:54 Sunny 85 29.4 56 13.3 37 37 NE 10 17 30.03 1017 10 16.0934 0 0
6:54 pm 18:54 Sunny 83 28.3 62 16.7 49 49 NE 8 13 30.03 1017 10 16.0934 0 0
7:54 pm 19:54 Sunny 79 26.1 57 13.9 47 47 ENE 7 11 30.03 1017 10 16.0934 0 0
8:54 pm 20:54 Clear 76 24.4 58 14.4 54 54 E 5 7 30.03 1017 10 16.0934 0 0
9:54 pm 21:54 Clear 75 23.9 60 15.6 60 60 E 5 7 30.04 1017 10 16.0934 0 0
10:54 pm 22:54 Clear 73 22.8 62 16.7 69 69 ESE 5 7 30.04 1017 10 16.0934 0 0
11:54 pm 23:54 Clear 70 21.1 61 16.1 73 73 Calm 30.04 1017 10 16.0934 0 0

Powered by AerisWeather